Zouar Airport

Jump to: basic info | weather | comments

Related pages: nearby airports | nearby navaids | notams | map

Basic information (top)

Codes: FTTR
Location: lon 20.450001, lat 16.583000, elev 2,655 ft / 809 m msl
Status: small_airport

Weather (top)

Current conditions for Faya Largeau Airport 209nm (387km) SE (rec'd 2015/03/29 09:00Z):

FTTY 290900Z 04027KT 3000 BLSA SKC 28/01 Q1014

Airport forecast for Kufra Airport 436nm (807km) ENE (rec'd 2015/03/29 12:00Z):

TAF HLKF 291100Z 2912/3012 35010KT CAVOK

Latest comments (top)

No comments yet for Zouar Airport

More... (top)

See also NOTAMs and nearby airports and navaids, or visit the Zouar Airport page at the main OurAirports website..